Location: Sternwarte_Laufen
(47.9344°N, 12.9346°E)
Time: 22:16:02
(UTC+02:00)

ISS - Pass Details

Date: 18 July 2018
Orbit: 402 x 408 km, 51.6° (Epoch: 17 July)

Event Time Altitude Azimuth Distance (km) Brightness Sun altitude
Exits shadow 23:58:10 79° 121° (ESE) 418 -4.0 -19.1°
Drops below altitude 10° 00:01:22 10° 68° (ENE) 1,469 -1.0 -19.2°
Sets 00:03:27 0° 67° (ENE) 2,333 0.1 -19.3°
